Regional Weather Roundup
Issued by NWS Binghamton, NY

Current Version | Previous Version | Text Only | Print | Product List | Glossary On
Versions: 1 2 3 4 5 6 7 8 9 10 11 12 13 14 15 16 17 18 19 20 21 22 23 24 25 26 27 28 29 30 31 32 33 34 35 36 37 38 39 40 41 42 43 44 45 46 47 48 49 50
000
ASUS41 KBGM 290210
RWRBGM

REGIONAL WEATHER ROUNDUP
NATIONAL WEATHER SERVICE BINGHAMTON NY
1000 PM EDT WED JUN 28 2017

Note: "fair" indicates few or no clouds below 12,000 feet with no
significant weather and/or obstructions to visibility.

* = Station(s) that does not report precipitation, such as rain,
snow, etc, also no thunder or fog.

NYZ009-015>018-022>025-036-037-044>046-055>057-062-290300
...Central New York...

CITY           SKY/WX    TMP DP  RH WIND       PRES   REMARKS
Binghamton     CLOUDY    63  49  60 SW6       30.09R
Cortland       FAIR      59  55  88 CALM      30.08R
Dansville      CLOUDY    63  54  72 CALM      30.07R
Elmira         CLOUDY    63  56  78 CALM      30.06R
Seneca Falls   CLEAR     64  55  72 CALM      30.05R
Ithaca         CLOUDY    60  56  86 CALM      30.08R
Hamilton       CLEAR     57  54  88 CALM      30.07S
Hornell        CLEAR     61  54  77 CALM      30.12R
Monticello     CLOUDY    61  52  72 CALM      30.13R
Norwich        CLEAR     57  54  88 CALM      30.09R
Oneonta        CLEAR     61 N/A N/A CALM      30.10S
Penn Yan       CLOUDY    63  51  65 S6        30.06R
Rome           CLOUDY    62  56  80 VRB3      30.05R
Sidney         CLEAR     57  57 100 CALM      30.09R
Syracuse       CLOUDY    64  56  75 CALM      30.03S
$$

PAZ038>040-043-044-047-048-072-290300
...Northeast Pennsylvania...

CITY           SKY/WX    TMP DP  RH WIND       PRES   REMARKS
Hazleton         N/A     63  46  55 CALM      30.17R
Scranton       CLOUDY    69  50  50 SW5       30.10R
$$
&&
KEY
WCI = Wind Chill Index
VSB = Visibility
HX  = Heat Index
$$



USA.gov is the U.S. government's official web portal to all federal, state and local government web resources and services.